Beatrice, NE

3:02 PM CDT on June 23, 2017 (GMT -0500)
Beatrice Municipal

Weather History for KBIE - June, 2014

Change the Weather History Date:

Tuesday, June 17, 2014

  Actual Average Record
Temperature  
Mean Temperature 83 °F -  
Max Temperature 91 °F 85 °F 101 °F (1978)
Min Temperature 75 °F 61 °F 46 °F (1999)
Cooling Degree Days 18    
Growing Degree Days 33 (Base 50)    
Moisture  
Dew Point 70 °F    
Average Humidity 65    
Maximum Humidity 79    
Minimum Humidity 52    
Precipitation  
Precipitation 0.03 in - - ()
Sea Level Pressure  
Sea Level Pressure 29.71 in    
Wind  
Wind Speed 17 mph (SSE)    
Max Wind Speed 25 mph    
Max Gust Speed 34 mph    
Visibility 10 miles    
Events      
Averages and records for this station are not official NWS values.
T = Trace of Precipitation, MM = Missing Value Source: NWS Daily Summary

Daily Weather History Graph

Daily Weather History Graph

Search for Another Location

Airport or City:

Trip Planner

Search our weather history database for the weather conditions in past years. The results will help you decide how hot, cold, wet, or windy it might be!

Date:

Astronomy

Jun. 17, 2014 Rise Set
Actual Time 5:56 AM CDT 8:59 PM CDT
Civil Twilight 5:23 AM CDT 9:32 PM CDT
Nautical Twilight 4:41 AM CDT 10:14 PM CDT
Astronomical Twilight 3:52 AM CDT 11:03 PM CDT
Moon No Moon Rise 11:13 AM CDT (6/17)
Length of Visible Light 16h 08m
Length of Day
15h 02m
Waning Gibbous, 73% of the Moon is Illuminated
Jun 17
Waning Gibbous
Jun 19
Last Quarter
Jun 27
New
Jul 5
First Quarter
Jul 12
Full

Hourly Weather History & Observations

Time (CDT) Temp. Heat Index Dew Point Humidity Pressure Visibility Wind Dir Wind Speed Gust Speed Precip Events Conditions
12:15 AM 80.1 °F 83.2 °F 69.8 °F 71% 29.66 in 10.0 mi South 18.4 mph 31.1 mph N/A   Clear
12:35 AM 79.7 °F - 69.8 °F 72% 29.67 in 10.0 mi South 21.9 mph 28.8 mph N/A   Clear
12:55 AM 78.8 °F - 69.8 °F 74% 29.67 in 10.0 mi South 17.3 mph 25.3 mph N/A   Clear
1:15 AM 79.0 °F - 69.3 °F 72% 29.68 in 10.0 mi South 18.4 mph 26.5 mph N/A   Clear
1:35 AM 79.0 °F - 68.7 °F 71% 29.68 in 10.0 mi South 17.3 mph 26.5 mph N/A   Clear
1:55 AM 78.8 °F - 68.2 °F 70% 29.68 in 10.0 mi South 18.4 mph 25.3 mph N/A   Clear
2:15 AM 78.8 °F - 68.0 °F 69% 29.68 in 10.0 mi South 16.1 mph 27.6 mph N/A   Clear
2:35 AM 78.4 °F - 67.5 °F 69% 29.67 in 10.0 mi South 16.1 mph 27.6 mph N/A   Clear
2:55 AM 78.4 °F - 67.3 °F 68% 29.68 in 10.0 mi South 15.0 mph 24.2 mph N/A   Clear
3:15 AM 78.3 °F - 67.1 °F 68% 29.68 in 10.0 mi South 16.1 mph 24.2 mph N/A   Clear
3:35 AM 78.1 °F - 66.9 °F 68% 29.68 in 10.0 mi South 12.7 mph - N/A   Clear
3:55 AM 77.5 °F - 66.7 °F 69% 29.69 in 10.0 mi South 13.8 mph 19.6 mph N/A   Clear
4:15 AM 77.5 °F - 66.9 °F 70% 29.70 in 10.0 mi South 12.7 mph 20.7 mph N/A   Clear
4:35 AM 77.5 °F - 66.6 °F 69% 29.69 in 10.0 mi South 16.1 mph - N/A   Clear
4:55 AM 77.4 °F - 66.6 °F 69% 29.69 in 10.0 mi South 13.8 mph 23.0 mph N/A   Clear
5:15 AM 77.4 °F - 66.6 °F 69% 29.71 in 10.0 mi SE 8.1 mph 11.5 mph N/A   Clear
5:35 AM 75.7 °F - 67.1 °F 74% 29.74 in 10.0 mi ENE 16.1 mph 21.9 mph N/A   Scattered Clouds
5:55 AM 76.1 °F - 67.1 °F 74% 29.73 in 10.0 mi SE 12.7 mph - N/A   Scattered Clouds
6:15 AM 75.7 °F - 67.1 °F 74% 29.76 in 10.0 mi ENE 11.5 mph - N/A   Scattered Clouds
6:35 AM 76.1 °F - 67.1 °F 74% 29.76 in 10.0 mi SE 10.4 mph - N/A   Mostly Cloudy
6:55 AM 75.2 °F - 67.6 °F 77% 29.77 in 7.0 mi East 10.4 mph - N/A   Mostly Cloudy
7:15 AM 75.2 °F - 68.0 °F 78% 29.76 in 10.0 mi East 11.5 mph 17.3 mph N/A   Mostly Cloudy
7:35 AM 75.7 °F - 68.2 °F 77% 29.78 in 7.0 mi East 11.5 mph 17.3 mph N/A   Mostly Cloudy
7:55 AM 77.0 °F - 68.5 °F 75% 29.76 in 10.0 mi ESE 11.5 mph 19.6 mph N/A   Mostly Cloudy
8:15 AM 78.1 °F - 69.1 °F 74% 29.76 in 10.0 mi SE 15.0 mph 19.6 mph N/A   Mostly Cloudy
8:35 AM 79.0 °F - 69.1 °F 72% 29.76 in 10.0 mi SE 17.3 mph 24.2 mph N/A   Scattered Clouds
8:55 AM 79.2 °F - 69.3 °F 72% 29.76 in 10.0 mi SSE 20.7 mph 24.2 mph N/A   Scattered Clouds
9:15 AM 79.7 °F - 69.3 °F 70% 29.75 in 10.0 mi SSE 16.1 mph 27.6 mph N/A   Clear
9:35 AM 80.6 °F 83.6 °F 69.1 °F 68% 29.75 in 10.0 mi SSE 18.4 mph 25.3 mph N/A   Clear
9:50 AM 80.8 °F 83.9 °F 69.4 °F 68% 29.73 in 10.0 mi SSE 21.9 mph 29.9 mph N/A   Clear
10:15 AM 81.7 °F 85.1 °F 69.4 °F 66% 29.73 in 7.0 mi South 19.6 mph 25.3 mph N/A   Scattered Clouds
10:35 AM 82.0 °F 85.5 °F 69.4 °F 65% 29.73 in 10.0 mi South 19.6 mph 28.8 mph N/A   Scattered Clouds
10:55 AM 83.1 °F 87.3 °F 70.2 °F 65% 29.73 in 10.0 mi South 20.7 mph 25.3 mph N/A   Scattered Clouds
11:15 AM 84.0 °F 88.7 °F 70.7 °F 64% 29.72 in 10.0 mi South 16.1 mph 27.6 mph N/A   Scattered Clouds
11:35 AM - - - N/A% - - North - - N/A   Unknown
11:55 AM 85.3 °F 90.4 °F 70.7 °F 62% 29.72 in 10.0 mi South 23.0 mph 31.1 mph 0.03 in   Scattered Clouds
12:15 PM 86.5 °F 91.8 °F 70.9 °F 59% 29.72 in 10.0 mi South 20.7 mph 27.6 mph N/A   Scattered Clouds
12:35 PM 87.3 °F 92.4 °F 70.5 °F 57% 29.72 in 10.0 mi South 17.3 mph 27.6 mph N/A   Scattered Clouds
12:55 PM 87.8 °F 92.6 °F 69.8 °F 55% 29.72 in 10.0 mi South 20.7 mph 32.2 mph N/A   Clear
1:15 PM 88.5 °F 93.5 °F 70.2 °F 54% 29.71 in 10.0 mi South 18.4 mph 29.9 mph N/A   Clear
1:35 PM 89.2 °F 94.9 °F 70.7 °F 54% 29.71 in 7.0 mi South 25.3 mph 33.4 mph N/A   Clear
1:55 PM 89.6 °F 95.7 °F 71.1 °F 54% 29.70 in 7.0 mi South 24.2 mph 31.1 mph N/A   Clear
2:15 PM 90.0 °F 96.4 °F 71.2 °F 54% 29.70 in 7.0 mi South 20.7 mph 29.9 mph N/A   Clear
2:35 PM 90.5 °F 97.0 °F 71.4 °F 53% 29.69 in 10.0 mi South 24.2 mph 29.9 mph N/A   Clear
2:55 PM 90.1 °F 96.3 °F 71.1 °F 53% 29.69 in 10.0 mi South 18.4 mph 32.2 mph N/A   Clear
3:15 PM 91.0 °F 98.2 °F 72.0 °F 53% 29.69 in 10.0 mi South 19.6 mph 31.1 mph N/A   Scattered Clouds
3:35 PM 90.5 °F 97.0 °F 71.2 °F 53% 29.69 in 10.0 mi South 21.9 mph 31.1 mph N/A   Clear
3:55 PM 90.9 °F 98.3 °F 72.1 °F 54% 29.69 in 10.0 mi South 21.9 mph 31.1 mph N/A   Scattered Clouds
4:15 PM 91.4 °F 99.5 °F 72.7 °F 54% 29.69 in 10.0 mi SSW 23.0 mph 27.6 mph N/A   Clear
4:35 PM 91.2 °F 99.1 °F 72.3 °F 54% 29.69 in 10.0 mi South 20.7 mph 28.8 mph N/A   Clear
4:55 PM 90.7 °F 97.9 °F 72.0 °F 54% 29.68 in 10.0 mi South 24.2 mph 32.2 mph N/A   Clear
5:15 PM 91.0 °F 98.7 °F 72.3 °F 54% 29.69 in 10.0 mi South 21.9 mph 32.2 mph N/A   Scattered Clouds
5:35 PM 91.4 °F 98.4 °F 71.6 °F 52% 29.68 in 10.0 mi South 21.9 mph 34.5 mph N/A   Scattered Clouds
5:55 PM 91.0 °F 99.3 °F 72.9 °F 55% 29.69 in 10.0 mi South 19.6 mph 28.8 mph N/A   Scattered Clouds
6:15 PM 90.5 °F 98.6 °F 72.9 °F 56% 29.68 in 10.0 mi South 17.3 mph 29.9 mph N/A   Scattered Clouds
6:35 PM 89.8 °F 98.1 °F 73.0 °F 58% 29.69 in 10.0 mi South 13.8 mph 25.3 mph N/A   Scattered Clouds
6:55 PM 89.8 °F 98.1 °F 73.0 °F 58% 29.69 in 10.0 mi South 19.6 mph 25.3 mph N/A   Clear
7:15 PM 89.1 °F 97.0 °F 72.9 °F 59% 29.69 in 10.0 mi South 16.1 mph 25.3 mph N/A   Clear
7:35 PM 88.5 °F 96.3 °F 73.0 °F 60% 29.69 in 10.0 mi South 13.8 mph 21.9 mph N/A   Clear
7:55 PM 87.8 °F 95.2 °F 73.0 °F 61% 29.70 in 10.0 mi South 15.0 mph 26.5 mph N/A   Clear
8:15 PM 87.1 °F 94.1 °F 72.9 °F 62% 29.70 in 10.0 mi SSE 12.7 mph 21.9 mph N/A   Clear
8:35 PM 86.2 °F 93.0 °F 72.9 °F 64% 29.70 in 10.0 mi SSE 16.1 mph - N/A   Clear
8:55 PM 85.3 °F 91.8 °F 72.7 °F 66% 29.70 in 7.0 mi SSE 15.0 mph 21.9 mph N/A   Clear
9:15 PM 84.6 °F 91.4 °F 73.2 °F 69% 29.71 in 10.0 mi SSE 18.4 mph 24.2 mph N/A   Clear
9:35 PM 84.0 °F 90.2 °F 73.0 °F 69% 29.71 in 10.0 mi SSE 17.3 mph 24.2 mph N/A   Clear
9:55 PM 83.5 °F 89.4 °F 72.9 °F 70% 29.71 in 10.0 mi SSE 17.3 mph 21.9 mph N/A   Clear
10:15 PM 83.3 °F 89.0 °F 72.7 °F 70% 29.73 in 10.0 mi South 16.1 mph 23.0 mph N/A   Clear
10:35 PM 82.8 °F 88.4 °F 72.9 °F 72% 29.73 in 10.0 mi South 15.0 mph 24.2 mph N/A   Clear
10:55 PM 82.4 °F 87.7 °F 72.5 °F 72% 29.74 in 10.0 mi South 16.1 mph 26.5 mph N/A   Clear
11:15 PM 82.0 °F 87.2 °F 72.5 °F 73% 29.74 in 10.0 mi SSE 15.0 mph 23.0 mph N/A   Clear
11:35 PM 81.7 °F 86.7 °F 72.5 °F 74% 29.74 in 10.0 mi SSE 17.3 mph 21.9 mph N/A   Clear
11:55 PM 80.6 °F 85.4 °F 73.4 °F 79% 29.74 in 10.0 mi SSE 15.0 mph - N/A   Clear